| time (UTC) | temp F | wind direction | speed knots | gust knots | rain 1hr in | rain 24hr in | rain mn in | humidity % | barometer mb |
| 20260504190016 | 82 | 222 | 2.6 | 6.1 | 0.00 | 0.00 | 0.00 | 51 | 1013.7 |
| 20260504185515 | 82 | 207 | 0.9 | 8.7 | 0.00 | 0.00 | 0.00 | 52 | 1013.7 |
| 20260504185014 | 81 | 186 | 2.6 | 8.7 | 0.00 | 0.00 | 0.00 | 54 | 1013.9 |
| 20260504184515 | 81 | 196 | 3.5 | 9.6 | 0.00 | 0.00 | 0.00 | 53 | 1014.0 |
| 20260504184015 | 81 | 198 | 0.9 | 11.3 | 0.00 | 0.00 | 0.00 | 54 | 1014.0 |
| 20260504183513 | 81 | 171 | 6.1 | 11.3 | 0.00 | 0.00 | 0.00 | 52 | 1014.0 |
| 20260504183032 | 81 | 153 | 5.2 | 10.4 | 0.00 | 0.00 | 0.00 | 53 | 1014.0 |
| 20260504182512 | 81 | 186 | 6.1 | 10.4 | 0.00 | 0.00 | 0.00 | 52 | 1014.1 |
| 20260504182011 | 82 | 196 | 5.2 | 10.4 | 0.00 | 0.00 | 0.00 | 51 | 1014.0 |
| 20260504181522 | 81 | 155 | 2.6 | 12.2 | 0.00 | 0.00 | 0.00 | 52 | 1014.2 |
| 20260504181011 | 83 | 178 | 5.2 | 12.2 | 0.00 | 0.00 | 0.00 | 49 | 1014.3 |
| 20260504180515 | 83 | 203 | 3.5 | 13.0 | 0.00 | 0.00 | 0.00 | 49 | 1014.3 |
| 20260504180010 | 82 | 181 | 4.3 | 13.0 | 0.00 | 0.00 | 0.00 | 49 | 1014.3 |
| 20260504175508 | 83 | 256 | 1.7 | 9.6 | 0.00 | 0.00 | 0.00 | 50 | 1014.5 |
| 20260504175007 | 82 | 190 | 3.5 | 9.6 | 0.00 | 0.00 | 0.00 | 51 | 1014.7 |
| 20260504174507 | 82 | 183 | 1.7 | 8.7 | 0.00 | 0.00 | 0.00 | 51 | 1014.7 |
| 20260504174006 | 82 | 338 | 2.6 | 8.7 | 0.00 | 0.00 | 0.00 | 53 | 1014.8 |
| 20260504173506 | 81 | 187 | 5.2 | 9.6 | 0.00 | 0.00 | 0.00 | 54 | 1014.9 |
| 20260504173004 | 80 | 161 | 2.6 | 11.3 | 0.00 | 0.00 | 0.00 | 55 | 1014.8 |
| 20260504172504 | 80 | 178 | 4.3 | 11.3 | 0.00 | 0.00 | 0.00 | 56 | 1014.8 |
| 20260504172002 | 80 | 195 | 2.6 | 12.2 | 0.00 | 0.00 | 0.00 | 55 | 1015.1 |
| 20260504171501 | 79 | 169 | 4.3 | 8.7 | 0.00 | 0.00 | 0.00 | 55 | 1015.2 |
| 20260504171003 | 80 | 223 | 1.7 | 8.7 | 0.00 | 0.00 | 0.00 | 54 | 1015.3 |
| 20260504170601 | 80 | 174 | 2.6 | 9.6 | 0.00 | 0.00 | 0.00 | 53 | 1015.2 |
| 20260504170109 | 80 | 147 | 3.5 | 13.0 | 0.00 | 0.00 | 0.00 | 53 | 1015.3 |
| 20260504151049 | 77 | 161 | 4.3 | 8.7 | 0.00 | 0.00 | 0.00 | 58 | 1016.0 |
| 20260504150549 | 77 | 167 | 1.7 | 10.4 | 0.00 | 0.00 | 0.00 | 59 | 1016.1 |
| 20260504141040 | 73 | 156 | 1.7 | 5.2 | 0.00 | 0.00 | 0.00 | 63 | 1016.1 |
| 20260504140539 | 72 | 181 | 2.6 | 4.3 | 0.00 | 0.00 | 0.00 | 63 | 1016.2 |
| 20260504130523 | 64 | 150 | 0.9 | 2.6 | 0.00 | 0.00 | 0.00 | 75 | 1016.1 |
| 20260504110514 | 58 | 180 | 0.0 | 0.0 | 0.00 | 0.00 | 0.00 | 83 | 1015.7 |
| 20260504100509 | 58 | 180 | 0.0 | 0.9 | 0.00 | 0.00 | 0.00 | 82 | 1016.0 |
| 20260504081601 | 59 | 180 | 0.0 | 1.7 | 0.00 | 0.00 | 0.00 | 77 | 1016.6 |
| 20260504081101 | 59 | 180 | 0.0 | 2.6 | 0.00 | 0.00 | 0.00 | 78 | 1016.5 |
| 20260504080559 | 59 | 180 | 0.9 | 2.6 | 0.00 | 0.00 | 0.00 | 78 | 1016.7 |
| 20260504050531 | 62 | 163 | 0.0 | 1.7 | 0.00 | 0.00 | 0.00 | 69 | 1018.8 |
| 20260504045531 | 62 | 163 | 0.0 | 0.9 | 0.00 | 0.00 | 0.00 | 69 | 1018.7 |
| 20260504045029 | 63 | 163 | 0.0 | 0.9 | 0.00 | 0.00 | 0.00 | 69 | 1018.6 |
| 20260504044537 | 63 | 163 | 0.0 | 0.0 | 0.00 | 0.00 | 0.00 | 68 | 1018.7 |
| 20260504044034 | 63 | 163 | 0.0 | 0.0 | 0.00 | 0.00 | 0.00 | 69 | 1018.7 |
| 20260504043529 | 63 | 163 | 0.0 | 0.0 | 0.00 | 0.00 | 0.00 | 68 | 1018.7 |
| 20260504043029 | 63 | 163 | 0.0 | 0.0 | 0.00 | 0.00 | 0.00 | 67 | 1018.8 |
| 20260504042528 | 64 | 163 | 0.0 | 0.0 | 0.00 | 0.00 | 0.00 | 66 | 1018.8 |
| 20260504042028 | 64 | 163 | 0.0 | 0.0 | 0.00 | 0.00 | 0.00 | 66 | 1018.8 |
| 20260504041528 | 64 | 163 | 0.0 | 0.0 | 0.00 | 0.00 | 0.00 | 65 | 1018.9 |
| 20260504041028 | 64 | 163 | 0.0 | 0.0 | 0.00 | 0.00 | 0.00 | 65 | 1018.9 |
| 20260504040528 | 64 | 163 | 0.0 | 0.0 | 0.00 | 0.00 | 0.00 | 65 | 1018.8 |
| 20260504040028 | 64 | 163 | 0.0 | 0.9 | 0.00 | 0.00 | 0.00 | 64 | 1018.7 |
| 20260504035531 | 64 | 163 | 0.0 | 2.6 | 0.00 | 0.00 | 0.00 | 64 | 1018.8 |
| 20260504035029 | 65 | 163 | 0.9 | 2.6 | 0.00 | 0.00 | 0.00 | 64 | 1018.7 |
| 20260504034544 | 65 | 163 | 0.0 | 2.6 | 0.00 | 0.00 | 0.00 | 63 | 1018.7 |
| 20260504034028 | 65 | 163 | 0.9 | 2.6 | 0.00 | 0.00 | 0.00 | 62 | 1018.7 |
| 20260504033527 | 65 | 163 | 0.9 | 4.3 | 0.00 | 0.00 | 0.00 | 62 | 1018.8 |
| 20260504033027 | 66 | 163 | 1.7 | 4.3 | 0.00 | 0.00 | 0.00 | 61 | 1018.9 |
| 20260504032527 | 66 | 163 | 0.9 | 4.3 | 0.00 | 0.00 | 0.00 | 61 | 1018.8 |
| 20260504032028 | 66 | 162 | 0.9 | 3.5 | 0.00 | 0.00 | 0.00 | 60 | 1018.8 |
| 20260504031527 | 66 | 162 | 0.9 | 2.6 | 0.00 | 0.00 | 0.00 | 60 | 1018.7 |
| 20260504031026 | 66 | 158 | 0.9 | 5.2 | 0.00 | 0.00 | 0.00 | 59 | 1018.7 |
| 20260504030527 | 67 | 164 | 1.7 | 5.2 | 0.00 | 0.00 | 0.00 | 59 | 1018.6 |
| 20260504030039 | 67 | 138 | 0.9 | 4.3 | 0.00 | 0.00 | 0.00 | 59 | 1018.7 |
| 20260504025529 | 67 | 187 | 1.7 | 4.3 | 0.00 | 0.00 | 0.00 | 58 | 1018.6 |
| 20260504025027 | 67 | 175 | 1.7 | 5.2 | 0.00 | 0.00 | 0.00 | 58 | 1018.5 |
| 20260504024526 | 67 | 171 | 0.9 | 7.0 | 0.00 | 0.00 | 0.00 | 57 | 1018.5 |
| 20260504024026 | 67 | 167 | 1.7 | 7.0 | 0.00 | 0.00 | 0.00 | 56 | 1018.5 |
| 20260504023526 | 68 | 162 | 2.6 | 6.1 | 0.00 | 0.00 | 0.00 | 56 | 1018.5 |
| 20260504023027 | 68 | 151 | 1.7 | 5.2 | 0.00 | 0.00 | 0.00 | 56 | 1018.5 |
| 20260504022526 | 68 | 179 | 1.7 | 5.2 | 0.00 | 0.00 | 0.00 | 55 | 1018.4 |
| 20260504022026 | 68 | 180 | 0.9 | 4.3 | 0.00 | 0.00 | 0.00 | 54 | 1018.5 |
| 20260504021526 | 69 | 140 | 0.9 | 5.2 | 0.00 | 0.00 | 0.00 | 54 | 1018.2 |
| 20260504021025 | 69 | 162 | 2.6 | 7.0 | 0.00 | 0.00 | 0.00 | 53 | 1018.2 |
| 20260504020525 | 69 | 105 | 3.5 | 7.0 | 0.00 | 0.00 | 0.00 | 53 | 1018.2 |
| 20260504020027 | 69 | 128 | 2.6 | 7.0 | 0.00 | 0.00 | 0.00 | 52 | 1018.1 |
| 20260504015525 | 69 | 165 | 3.5 | 7.0 | 0.00 | 0.00 | 0.00 | 51 | 1018.1 |
| 20260504015025 | 70 | 167 | 3.5 | 7.8 | 0.00 | 0.00 | 0.00 | 51 | 1018.2 |
| 20260504014535 | 70 | 126 | 3.5 | 7.8 | 0.00 | 0.00 | 0.00 | 51 | 1018.1 |
| 20260504014024 | 70 | 178 | 3.5 | 7.8 | 0.00 | 0.00 | 0.00 | 51 | 1018.2 |
| 20260504013524 | 70 | 149 | 3.5 | 7.0 | 0.00 | 0.00 | 0.00 | 50 | 1018.1 |
| 20260504013024 | 70 | 163 | 4.3 | 8.7 | 0.00 | 0.00 | 0.00 | 50 | 1018.1 |
| 20260504012524 | 71 | 170 | 2.6 | 8.7 | 0.00 | 0.00 | 0.00 | 49 | 1018.0 |
| 20260504012024 | 71 | 178 | 4.3 | 8.7 | 0.00 | 0.00 | 0.00 | 49 | 1018.0 |
| 20260504011524 | 71 | 238 | 2.6 | 8.7 | 0.00 | 0.00 | 0.00 | 49 | 1018.0 |
| 20260504011024 | 71 | 165 | 1.7 | 6.1 | 0.00 | 0.00 | 0.00 | 49 | 1017.9 |
| 20260504010523 | 72 | 153 | 2.6 | 7.0 | 0.00 | 0.00 | 0.00 | 48 | 1017.9 |
| 20260504010023 | 72 | 143 | 3.5 | 7.0 | 0.00 | 0.00 | 0.00 | 48 | 1017.9 |
| 20260504005523 | 72 | 163 | 2.6 | 7.8 | 0.00 | 0.00 | 0.00 | 48 | 1017.9 |
| 20260504005023 | 72 | 153 | 2.6 | 8.7 | 0.00 | 0.00 | 0.00 | 47 | 1017.9 |
| 20260504004523 | 72 | 178 | 3.5 | 8.7 | 0.00 | 0.00 | 0.00 | 47 | 1017.9 |
| 20260504004022 | 73 | 195 | 2.6 | 7.8 | 0.00 | 0.00 | 0.00 | 47 | 1018.1 |
| 20260504003522 | 73 | 186 | 3.5 | 7.0 | 0.00 | 0.00 | 0.00 | 47 | 1018.1 |
| 20260504003030 | 73 | 179 | 2.6 | 6.1 | 0.00 | 0.00 | 0.00 | 47 | 1018.0 |
| 20260504002522 | 73 | 158 | 3.5 | 8.7 | 0.00 | 0.00 | 0.00 | 47 | 1017.9 |
| 20260504002022 | 74 | 152 | 4.3 | 8.7 | 0.00 | 0.00 | 0.00 | 46 | 1017.9 |
| 20260504001521 | 74 | 168 | 2.6 | 6.1 | 0.00 | 0.00 | 0.00 | 46 | 1017.9 |
| 20260504001021 | 75 | 168 | 2.6 | 8.7 | 0.00 | 0.00 | 0.00 | 45 | 1017.8 |
| 20260504000522 | 75 | 161 | 2.6 | 8.7 | 0.00 | 0.00 | 0.00 | 44 | 1017.9 |
| 20260504000021 | 75 | 184 | 2.6 | 7.8 | 0.00 | 0.00 | 0.00 | 43 | 1017.8 |
| 20260503235520 | 76 | 173 | 3.5 | 7.0 | 0.00 | 0.00 | 0.00 | 42 | 1018.0 |
| 20260503235023 | 76 | 169 | 3.5 | 8.7 | 0.00 | 0.00 | 0.00 | 41 | 1017.9 |
| 20260503234535 | 76 | 170 | 2.6 | 8.7 | 0.00 | 0.00 | 0.00 | 41 | 1017.9 |
| 20260503234020 | 76 | 136 | 3.5 | 8.7 | 0.00 | 0.00 | 0.00 | 41 | 1017.9 |
| 20260503233522 | 76 | 167 | 4.3 | 8.7 | 0.00 | 0.00 | 0.00 | 39 | 1017.9 |
| 20260503233018 | 77 | 146 | 4.3 | 8.7 | 0.00 | 0.00 | 0.00 | 39 | 1018.0 |
| 20260503232519 | 77 | 186 | 4.3 | 8.7 | 0.00 | 0.00 | 0.00 | 38 | 1018.1 |
| 20260503232017 | 77 | 139 | 4.3 | 8.7 | 0.00 | 0.00 | 0.00 | 37 | 1018.1 |
| 20260503231517 | 77 | 182 | 3.5 | 7.8 | 0.00 | 0.00 | 0.00 | 37 | 1018.2 |
| 20260503231019 | 77 | 152 | 3.5 | 8.7 | 0.00 | 0.00 | 0.00 | 38 | 1018.2 |
| 20260503230517 | 78 | 167 | 4.3 | 7.8 | 0.00 | 0.00 | 0.00 | 37 | 1018.2 |
| 20260503230017 | 78 | 159 | 4.3 | 8.7 | 0.00 | 0.00 | 0.00 | 34 | 1018.1 |
| 20260503225517 | 78 | 148 | 2.6 | 8.7 | 0.00 | 0.00 | 0.00 | 32 | 1018.1 |
| 20260503225019 | 78 | 177 | 3.5 | 8.7 | 0.00 | 0.00 | 0.00 | 33 | 1018.3 |
| 20260503224515 | 78 | 169 | 1.7 | 7.8 | 0.00 | 0.00 | 0.00 | 33 | 1018.4 |
| 20260503224015 | 78 | 297 | 1.7 | 7.8 | 0.00 | 0.00 | 0.00 | 33 | 1018.4 |
| 20260503223514 | 79 | 133 | 3.5 | 7.8 | 0.00 | 0.00 | 0.00 | 32 | 1018.5 |
| 20260503223014 | 79 | 122 | 2.6 | 7.8 | 0.00 | 0.00 | 0.00 | 31 | 1018.5 |
| 20260503222512 | 79 | 173 | 3.5 | 7.8 | 0.00 | 0.00 | 0.00 | 33 | 1018.4 |
| 20260503222011 | 79 | 96 | 1.7 | 7.8 | 0.00 | 0.00 | 0.00 | 31 | 1018.6 |
| 20260503221511 | 79 | 159 | 1.7 | 6.1 | 0.00 | 0.00 | 0.00 | 32 | 1018.7 |
| 20260503221012 | 79 | 165 | 2.6 | 7.0 | 0.00 | 0.00 | 0.00 | 31 | 1018.8 |
| 20260503220516 | 79 | 171 | 3.5 | 7.0 | 0.00 | 0.00 | 0.00 | 31 | 1018.9 |
| 20260503220011 | 79 | 183 | 1.7 | 7.8 | 0.00 | 0.00 | 0.00 | 32 | 1018.7 |
| 20260503215512 | 79 | 166 | 2.6 | 7.8 | 0.00 | 0.00 | 0.00 | 30 | 1018.8 |
| 20260503215010 | 79 | 171 | 3.5 | 7.8 | 0.00 | 0.00 | 0.00 | 30 | 1018.8 |
| 20260503214513 | 79 | 142 | 2.6 | 7.8 | 0.00 | 0.00 | 0.00 | 31 | 1018.8 |
| 20260503214014 | 79 | 167 | 3.5 | 9.6 | 0.00 | 0.00 | 0.00 | 31 | 1018.8 |
| 20260503213508 | 79 | 182 | 2.6 | 9.6 | 0.00 | 0.00 | 0.00 | 29 | 1018.9 |
| 20260503213007 | 80 | 181 | 5.2 | 9.6 | 0.00 | 0.00 | 0.00 | 30 | 1019.2 |
| 20260503212507 | 80 | 150 | 1.7 | 7.0 | 0.00 | 0.00 | 0.00 | 32 | 1019.2 |
| 20260503212006 | 81 | 115 | 1.7 | 7.8 | 0.00 | 0.00 | 0.00 | 31 | 1019.4 |
| 20260503211506 | 81 | 112 | 0.9 | 4.3 | 0.00 | 0.00 | 0.00 | 30 | 1019.4 |
| 20260503211005 | 80 | 79 | 0.9 | 7.8 | 0.00 | 0.00 | 0.00 | 31 | 1019.5 |
| 20260503210505 | 80 | 202 | 1.7 | 10.4 | 0.00 | 0.00 | 0.00 | 31 | 1019.6 |
| 20260503210006 | 80 | 167 | 4.3 | 10.4 | 0.00 | 0.00 | 0.00 | 30 | 1019.5 |
| 20260503205504 | 81 | 289 | 0.9 | 6.1 | 0.00 | 0.00 | 0.00 | 32 | 1019.6 |
| 20260503205004 | 81 | 281 | 0.9 | 6.1 | 0.00 | 0.00 | 0.00 | 31 | 1019.7 |
| 20260503204504 | 80 | 147 | 0.9 | 7.8 | 0.00 | 0.00 | 0.00 | 33 | 1019.6 |
| 20260503204003 | 80 | 155 | 3.5 | 7.8 | 0.00 | 0.00 | 0.00 | 30 | 1019.9 |
| 20260503203505 | 80 | 150 | 1.7 | 6.1 | 0.00 | 0.00 | 0.00 | 30 | 1019.9 |
| 20260503203001 | 81 | 44 | 1.7 | 7.8 | 0.00 | 0.00 | 0.00 | 30 | 1020.0 |
| 20260503202501 | 80 | 145 | 0.9 | 7.8 | 0.00 | 0.00 | 0.00 | 32 | 1020.0 |
| 20260503202101 | 80 | 177 | 3.5 | 7.8 | 0.00 | 0.00 | 0.00 | 31 | 1020.0 |
| 20260503201605 | 80 | 96 | 2.6 | 10.4 | 0.00 | 0.00 | 0.00 | 33 | 1020.2 |
| 20260503201059 | 80 | 159 | 0.9 | 10.4 | 0.00 | 0.00 | 0.00 | 31 | 1020.3 |
| 20260503200559 | 79 | 202 | 5.2 | 8.7 | 0.00 | 0.00 | 0.00 | 31 | 1020.3 |
| 20260503200101 | 81 | 156 | 2.6 | 5.2 | 0.00 | 0.00 | 0.00 | 33 | 1020.4 |
| 20260503195556 | 80 | 169 | 0.9 | 5.2 | 0.00 | 0.00 | 0.00 | 32 | 1020.5 |
| 20260503195057 | 81 | 86 | 2.6 | 7.0 | 0.00 | 0.00 | 0.00 | 32 | 1020.6 |
| 20260503194555 | 82 | 290 | 2.6 | 7.0 | 0.00 | 0.00 | 0.00 | 33 | 1020.6 |
| 20260503194055 | 81 | 60 | 0.9 | 5.2 | 0.00 | 0.00 | 0.00 | 31 | 1020.7 |
| 20260503193554 | 81 | 135 | 2.6 | 5.2 | 0.00 | 0.00 | 0.00 | 32 | 1020.8 |
| 20260503193059 | 80 | 156 | 0.9 | 7.8 | 0.00 | 0.00 | 0.00 | 32 | 1020.9 |
| 20260503192552 | 81 | 167 | 3.5 | 7.8 | 0.00 | 0.00 | 0.00 | 32 | 1021.0 |
| 20260503192052 | 81 | 169 | 2.6 | 7.8 | 0.00 | 0.00 | 0.00 | 31 | 1021.0 |
| 20260503191615 | 81 | 161 | 3.5 | 8.7 | 0.00 | 0.00 | 0.00 | 31 | 1021.2 |
| 20260503191053 | 82 | 148 | 2.6 | 8.7 | 0.00 | 0.00 | 0.00 | 30 | 1021.2 |
| 20260503190552 | 83 | 214 | 1.7 | 4.3 | 0.00 | 0.00 | 0.00 | 30 | 1021.3 |